Regional Weather Roundup
Issued by NWS Nashville, TN

Home | Current Version | Previous Version | Text Only | Print | Product List | Glossary On
Versions: 1 2 3 4 5 6 7 8 9 10 11 12 13 14 15 16 17 18 19 20 21 22 23 24 25 26 27 28 29 30 31 32 33 34 35 36 37 38 39 40 41 42 43 44 45 46 47 48 49 50
000
ASUS44 KOHX 290215
RWROHX
MIDDLE TENNESSEE HOURLY WEATHER ROUNDUP
NATIONAL WEATHER SERVICE NASHVILLE TN
800 PM CST SUN DEC 28 2014

NOTE: "FAIR" INDICATES FEW OR NO CLOUDS BELOW 12,000 FEET WITH
NO SIGNIFICANT WEATHER AND/OR OBSTRUCTIONS TO VISIBILITY.

* THESE REPORTS ARE NOT UNDER NWS QUALITY CONTROL AND MAY NOT
  REPORT WEATHER SUCH AS PRECIPITATION AND FOG.


TNZ005>011-023>034-057-059-062>066-078-080-290300
...NORTHERN MIDDLE TENNESSEE...

CITY           SKY/WX    TMP DP  RH WIND       PRES   REMARKS
CLARKSVILLE    CLOUDY    36  32  85 N5        30.19S WCI  32
CROSSVILLE     LGT RAIN  43  40  89 NE5       30.11S
NASHVILLE      CLOUDY    38  36  92 N5        30.16F FOG     WCI  34
SMYRNA         LGT RAIN  39  38  97 N6        30.17F FOG     WCI  35
SPARTA         CLOUDY    39  39 100 N3        30.13S
$$
TNZ056-058-060-061-075>077-079-093>097-290300
...SOUTHERN MIDDLE TENNESSEE...

CITY           SKY/WX    TMP DP  RH WIND       PRES   REMARKS
COLUMBIA       CLOUDY   N/A N/A N/A N3        30.14S
MCMINNVILLE    CLOUDY    41  41 100 CALM      30.13S
SHELBYVILLE    CLOUDY    39  39 100 N5        30.14F
TULLAHOMA      CLOUDY    39  39 100 N5        30.12F
WINCHESTER     CLOUDY    43  41  93 N5        30.12S
$$


...KEY TO REMARKS...
VSB - VISIBILITY IN MILES
WCI - WIND CHILL INDEX
HX  - HEAT INDEX




USA.gov is the U.S. government's official web portal to all federal, state and local government web resources and services.